Location: Casteau
(50.5142°N, 4.0161°E)
Time: 04:25:29
(UTC+00:00)

Vanguard 1 Rocket - Pass Details

Date: 27 July 2021
Orbit: 650 x 4226 km, 34.3° (Epoch: 21 September)

Event Time Altitude Azimuth Distance (km) Brightness Sun altitude
Rises 10:23:54 0° 219° (SW) 7,400 12.2 54.2°
Reaches altitude 10° 10:30:58 10° 208° (SSW) 5,725 11.8 54.8°
Maximum altitude 10:41:39 23° 166° (SSE) 3,577 11.5 55.7°
Drops below altitude 10° 10:48:39 10° 119° (ESE) 3,609 11.1 56.3°
Sets 10:51:48 0° 103° (ESE) 4,178 11.1 56.5°
